Weather History for Jonesboro, AR

Change the Weather History Date:

Friday, July 26, 2013

  Actual Average Record
Temperature  
Mean Temperature 72 °F 81 °F  
Max Temperature 83 °F 91 °F 105 °F (1952)
Min Temperature 61 °F 71 °F 57 °F (1897)
Degree Days  
Heating Degree Days 0 0  
Month to date heating degree days 0 0  
Since 1 June heating degree days 0 1  
Since 1 July heating degree days 0 0  
Cooling Degree Days 7 16  
Month to date cooling degree days 394 415  
Year to date cooling degree days 1073 1011  
Since 1 June cooling degree days 843 798  
Growing Degree Days 22 (Base 50)    
Moisture  
Dew Point 64 °F    
Average Humidity 72    
Maximum Humidity 93    
Minimum Humidity 51    
Precipitation  
Precipitation T in 0.09 in 1.84 in (1986)
Month to date precipitation 2.54 3.15  
Year to date precipitation 32.88 28.18  
Snow  
Snow 0.00 in 0.00 in - ()
Month to date snowfall 0.0 0.0  
Since 1 June snowfall 0.0 0.0  
Since 1 July snowfall 0.0 0.0  
Snow Depth 0.00 in    
Sea Level Pressure  
Sea Level Pressure 30.04 in    
Wind  
Wind Speed 2 mph (WNW)    
Max Wind Speed 7 mph    
Max Gust Speed 13 mph    
Visibility 10 miles    
Events Rain    
T = Trace of Precipitation, MM = Missing Value Source: NWS Daily Summary

Daily Weather History Graph

Daily Weather History Graph

Search for Another Location

Airport:

Trip Planner

Search our weather history database for the weather conditions in past years. The results will help you decide how hot, cold, wet, or windy it might be!

Date:

Astronomy

Jul. 26, 2013 Rise Set
Actual Time 6:05 AM CDT 8:11 PM CDT
Civil Twilight 5:37 AM CDT 8:40 PM CDT
Nautical Twilight 5:02 AM CDT 9:15 PM CDT
Astronomical Twilight 4:24 AM CDT 9:52 PM CDT
Moon 10:38 PM CDT (7/26) 10:31 AM CDT (7/26)
Length of Visible Light 15h 03m
Length of Day
14h 06m
Waning Gibbous, 80% of the Moon is Illuminated
Jul 26
Waning Gibbous
Jul 29
Last Quarter
Aug 6
New
Aug 14
First Quarter
Aug 20
Full

Hourly Weather History & Observations

Time (CDT) Temp. Heat Index Dew Point Humidity Pressure Visibility Wind Dir Wind Speed Gust Speed Precip Events Conditions
12:53 AM 64.9 °F - 62.1 °F 90% 30.07 in 10.0 mi Calm Calm - N/A   Clear
1:53 AM 64.9 °F - 62.1 °F 90% 30.06 in 10.0 mi Calm Calm - N/A   Clear
2:53 AM 63.0 °F - 60.1 °F 90% 30.05 in 10.0 mi Calm Calm - N/A   Clear
3:53 AM 63.0 °F - 60.1 °F 90% 30.05 in 10.0 mi Calm Calm - N/A   Clear
4:53 AM 63.0 °F - 60.1 °F 90% 30.05 in 10.0 mi Calm Calm - N/A   Clear
5:53 AM 62.1 °F - 59.0 °F 90% 30.04 in 10.0 mi Calm Calm - N/A   Clear
6:53 AM 66.0 °F - 63.0 °F 90% 30.06 in 10.0 mi Calm Calm - N/A   Clear
7:53 AM 70.0 °F - 64.0 °F 81% 30.06 in 10.0 mi Calm Calm - N/A   Clear
8:53 AM 73.0 °F - 63.0 °F 71% 30.07 in 10.0 mi Calm Calm - N/A   Clear
9:53 AM 75.9 °F - 62.1 °F 62% 30.07 in 10.0 mi SSE 3.5 mph - N/A   Clear
10:53 AM 78.1 °F - 61.0 °F 56% 30.06 in 10.0 mi SSE 5.8 mph - N/A   Clear
11:53 AM 81.0 °F 81.9 °F 62.1 °F 52% 30.06 in 10.0 mi South 4.6 mph - N/A   Clear
12:53 PM 81.0 °F 81.7 °F 61.0 °F 50% 30.05 in 10.0 mi South 4.6 mph - N/A   Clear
1:53 PM 81.0 °F 82.2 °F 63.0 °F 54% 30.04 in 10.0 mi Calm Calm - N/A   Clear
2:53 PM 80.1 °F 81.5 °F 63.0 °F 56% 30.04 in 10.0 mi West 4.6 mph - N/A   Mostly Cloudy
3:53 PM 79.0 °F - 64.0 °F 60% 30.04 in 10.0 mi NW 3.5 mph - N/A   Scattered Clouds
4:53 PM 75.9 °F - 66.9 °F 74% 30.04 in 10.0 mi WNW 3.5 mph - 0.00 in Rain Light Rain
5:53 PM 75.9 °F - 68.0 °F 76% 30.02 in 10.0 mi NNW 3.5 mph - 0.00 in   Overcast
6:53 PM 75.0 °F - 69.1 °F 82% 30.01 in 10.0 mi NNW 3.5 mph - 0.00 in   Mostly Cloudy
7:53 PM 73.9 °F - 69.1 °F 85% 29.98 in 10.0 mi ENE 3.5 mph - N/A   Mostly Cloudy
8:53 PM 73.0 °F - 69.1 °F 87% 29.96 in 10.0 mi Calm Calm - N/A   Scattered Clouds
9:53 PM 73.0 °F - 69.1 °F 87% 29.99 in 10.0 mi Calm Calm - N/A   Mostly Cloudy
10:53 PM 72.0 °F - 68.0 °F 87% 30.00 in 10.0 mi WNW 4.6 mph - N/A   Overcast
11:53 PM 72.0 °F - 68.0 °F 87% 30.01 in 10.0 mi NNW 3.5 mph - N/A   Overcast